Regional Weather Roundup
Issued by NWS Newport/Morehead, NC

Current Version | Previous Version | Text Only | Print | Product List | Glossary On
Versions: 1 2 3 4 5 6 7 8 9 10 11 12 13 14 15 16 17 18 19 20 21 22 23 24 25 26 27 28 29 30 31 32 33 34 35 36 37 38 39 40 41 42 43 44 45 46 47 48 49 50
124 ASUS42 KMHX 122025 RWRMHX WEATHER ROUNDUP FOR EASTERN NORTH CAROLINA NATIONAL WEATHER SERVICE NEWPORT/MOREHEAD CITY NC 300 PM EST FRI FEB 12 2016 NOTE: "FAIR" INDICATES FEW OR NO CLOUDS BELOW 12,000 FEET WITH NO SIGNIFICANT WEATHER AND/OR OBSTRUCTIONS TO VISIBILITY NCZ015>017-031-032-045>047-102-103-122100- NORTH COAST CITY SKY/WX TMP DP RH WIND PRES REMARKS EDENTON MIX PCPN 31 29 94 NE6 30.08F VSB 1 ELIZABETH CITY HVY SNOW 28 26 92 NE9 30.09F VSB 1/4 KITTY HAWK SNOW 31 28 87 NE3 30.05F VSB 1/2 MANTEO LGT SNOW 31 30 99 NE8 30.07F $$ NCZ045>047-081-094-103-104-122100- CENTRAL COAST CITY SKY/WX TMP DP RH WIND PRES REMARKS FRISCO LGT RAIN 34 33 96 NE14G26 30.01F SWANQUARTER N/A N/A N/A N/A N6 30.00F $$ NCZ095-097-098-100-101-122100- SOUTHERN COAST CITY SKY/WX TMP DP RH WIND PRES REMARKS BEAUFORT CLOUDY 34 32 92 N15 30.01F CEDAR ISLAND N/A 36 N/A N/A N23 30.03F JACKSONVILLE LGT RAIN 34 31 88 N13 30.06R PINEY ISLAND CLOUDY N/A N/A N/A N14G25 29.99F WILMINGTON CLOUDY 36 31 82 N8 30.03F $$ NCZ011>013-027>030-043-044-078>080-089-090>093-098-122100- COASTAL PLAIN CITY SKY/WX TMP DP RH WIND PRES REMARKS AHOSKIE NOT AVBL CLINTON MIX PCPN 31 30 96 N5 30.07F ELIZABETHTOWN CLOUDY 32 29 89 N5 30.06S GOLDSBORO FRZ RAIN 30 30 100 VRB6 30.06F GREENVILLE LGT SNOW 32 30 93 CALM 30.09F HAVELOCK CLOUDY 33 31 92 N12 30.04F FOG KENANSVILLE MIX PCPN 31 30 96 CALM 30.07F KINSTON DRIZZLE 30 30 100 N6 30.08F NEW BERN MIX PCPN 32 29 88 N10 30.08R FOG RICHLANDS CLOUDY 32 27 80 CALM 30.05F ROCKY MOUNT LGT SNOW 28 24 85 NE5 30.08F FOG WASHINGTON LGT SNOW 30 28 92 N6 30.06F WHITEVILLE CLOUDY 37 24 61 N5 30.04F $$ AMZ130-135-150-152-154-156-158-170-250-252-270-ANZ085-086-088-633-658-670-122100- MARINE OBSERVATIONS STATION/POSITION TIME TEMP WIND PRES WAVE SWELL AIR SEA DIR/SP/G HT/PER HT/PER (UTC) (F) (DEG/KT/KT) (MB) (FT/S) (FT/S) CHESAPEAKE LIGHT 2000 27 120/ 6/ 7 1020.3 64 E VA BEACH 1950 30 48 40/ 4/ 6 1019.7 2/ 6 2/ 6 DUCK 2000 29 40/ 10/ 12 1017.9 2 E DUCK 1911 42 N/A 2/ 5 OREGON INLET 2000 30 40 20/ 13/ 16 1017.7 13E OREGON INLT 2000 45 N/A 3/ 6 HATTERAS CG 2000 35 47 30/ 18/ 25 1015.3 DIAMOND BUOY 1950 46 59 20/ 21/ 29 1014.6 4/ 7 2/14 CAPE LOOKOUT NOT AVBL BEAUFORT LAB 2000 34 44 30/ 13/ 20 1014.3 30 SE NEW RVR IN 2008 44 58 1014.1 30 SE NEW RVR IN 1925 58 N/A 5/ 5 27 SE WRIGHTSVLE 2008 39 61 360/ 19/ 27 1014.5 5 SE WRIGHTSVLE NOT AVBL 225 S CAPE HAT 1950 66 68 230/ 33/ 43 N/A 13/ 8 41 SE CHARLESTON 1950 55 67 290/ 12/ 14 1016.2 4/ 7 3/ 7 $$

USA.gov is the U.S. government's official web portal to all federal, state and local government web resources and services.